Retour au catalogue

SL-14 DEB

ActifPO
NORAD 45312·DEBRIS·🇷🇺 Russia

Lancé Aug 15, 1991 depuis Plesetsk Cosmodrome

Loading…

Prochains Passages (prochaines 24 heures)

TLE

FraisSource: Space-Track

Époque: Sep 14, 2026, 10:07 UTC

1 45312U 91056BA  26257.42159403  .00000534  00000-0  12855-2 0  9991
2 45312  82.5151  62.5357 0013213 242.2466 117.7319 13.20582782316336

Suivez SL-14 DEB en temps réel avec AllMySat

Download on the App Store